Wind_Speed
30 30 30 30 30 30 31 31 34 33 32 32 36 37 37 38 39 40 40 40 40 40 41 41 42 43 44 46 48 50 52 54 56 59 62 65 67 70 73 76 78 80 82 83
32 32 33 33 31 32 33 34 36 37 35 35 37 38 39 40 40 40 40 41 41 42 42 43 44 45 47 49 50 53 55 57 60 63 66 68 71 74 76 79 81 82 84 85
34 34 36 36 31 33 35 35 37 38 38 38 38 39 40 41 41 42 42 42 42 42 43 44 46 47 49 51 53 55 58 60 63 66 69 72 74 77 79 81 82 83 85 85
37 36 39 37 34 35 37 37 38 39 40 40 41 41 41 41 42 42 42 42 43 44 45 46 48 49 51 53 56 58 61 64 67 70 72 75 77 79 81 82 83 84 84 83
39 40 41 38 37 37 39 38 38 40 41 42 42 42 41 40 41 41 41 42 44 45 46 48 50 51 53 56 59 61 64 66 69 72 75 77 79 81 82 83 83 83 81 79
40 42 43 39 37 38 39 39 38 39 40 40 40 40 40 40 40 41 42 43 44 46 48 50 52 54 56 59 61 64 66 69 72 75 77 79 80 82 82 83 82 80 77 75
41 43 44 41 39 39 39 40 38 38 39 39 39 39 40 40 41 41 42 44 45 47 49 52 54 56 59 61 64 66 69 71 74 76 78 80 81 82 82 82 80 77 74 70
41 43 44 42 42 41 41 40 39 38 38 38 39 39 40 41 42 43 44 46 47 49 51 54 56 59 61 64 66 69 71 73 75 77 79 80 81 81 81 79 76 72 68 64
42 43 44 44 44 43 42 41 40 40 39 39 39 39 40 41 42 44 46 47 49 51 53 56 59 62 64 66 69 71 72 74 76 77 79 80 81 80 78 75 72 68 63 59
41 42 43 44 44 43 43 42 41 40 40 39 39 40 40 42 43 45 47 49 51 53 56 58 61 64 66 69 71 73 74 75 77 78 79 79 79 77 74 70 66 63 59 55
42 42 43 42 42 42 42 42 41 40 40 40 40 41 42 43 45 47 49 51 54 56 58 61 63 66 68 71 72 73 75 77 78 79 79 78 76 73 69 65 62 59 55 52
41 41 42 42 42 42 42 42 41 41 41 41 42 43 44 46 47 49 52 54 56 59 61 63 66 68 70 72 73 75 77 78 79 79 78 76 72 67 63 60 57 54 52 49
41 41 42 42 42 43 43 42 42 41 42 42 43 44 46 48 50 52 55 57 59 61 63 65 67 69 71 73 75 77 78 79 79 78 76 73 68 63 58 54 52 49 47 46
41 42 42 43 43 42 42 41 41 41 42 43 45 47 49 51 53 55 57 59 61 63 65 67 69 71 73 76 77 78 79 79 78 76 72 68 63 58 54 50 46 43 42 42
41 41 42 42 41 41 40 40 41 42 43 45 47 49 51 53 55 57 59 61 63 65 67 70 72 73 76 77 78 79 78 77 75 71 67 62 57 53 49 46 43 40 39 39
40 40 40 39 39 39 39 40 41 43 45 47 49 51 53 55 57 58 61 63 66 67 70 72 74 76 77 78 79 78 76 73 70 66 61 56 51 48 45 42 40 38 38 38
36 36 36 37 37 39 40 42 44 45 47 49 51 53 55 57 59 61 63 66 68 70 72 74 76 77 78 78 78 76 72 68 64 59 54 49 46 44 41 39 37 37 37 37
34 35 36 37 39 40 42 44 46 48 49 51 52 54 57 59 61 63 66 68 70 72 74 76 77 77 77 77 74 71 67 62 57 52 48 44 42 40 38 37 36 36 36 35
34 35 37 39 40 42 44 46 47 49 51 53 55 57 59 62 64 67 69 71 73 74 75 76 77 76 75 72 69 65 61 56 51 46 43 40 39 37 37 36 36 36 36 34
36 37 39 40 42 43 45 47 49 51 53 56 58 60 63 65 68 70 72 73 75 76 76 76 75 73 70 67 63 58 54 50 45 41 39 37 36 35 35 35 35 35 34 34
37 39 40 41 43 45 47 49 51 54 56 59 62 64 66 68 71 73 74 74 75 76 76 74 72 69 65 60 56 52 48 44 41 38 36 35 35 34 34 34 34 34 33 32
38 40 41 43 45 48 51 53 56 58 61 63 66 68 70 71 73 74 75 75 75 74 73 70 67 63 59 54 50 47 43 40 37 35 34 34 34 33 33 33 33 32 32 30
40 42 45 47 49 52 55 57 60 62 64 66 69 71 72 73 74 75 74 73 73 70 68 65 61 57 53 49 45 42 39 37 35 34 33 33 33 32 32 32 31 31 30 29
44 47 49 52 54 56 59 61 63 65 67 69 71 72 73 74 73 73 72 70 68 66 63 60 56 52 48 44 41 38 36 35 33 33 32 32 32 31 31 30 30 29 29 28
49 51 54 56 59 61 63 64 66 68 69 70 71 71 72 72 71 70 69 67 64 62 58 54 50 46 43 40 37 35 34 33 32 32 32 31 31 30 29 29 29 28 27 27
53 55 58 61 63 65 66 67 68 69 70 70 69 69 69 69 68 67 65 62 59 55 51 47 43 41 38 36 35 33 32 31 31 31 31 30 29 29 28 28 27 27 26 26
58 60 62 63 65 66 67 68 69 69 69 69 68 67 67 65 63 62 59 56 53 49 46 42 40 38 36 35 33 32 31 30 30 30 29 29 28 28 27 26 26 25 25 24
Wind_Direction
250 254 257 259 262 267 271 275 278 280 280 282 282 283 285 286 287 288 288 288 288 288 289 290 291 293 293 294 295 296 298 299 300 301 302 302 303 304 305 306 306 306 306 305
254 257 260 262 265 270 273 275 278 279 280 281 282 283 284 285 286 287 287 287 288 288 289 290 292 293 294 295 297 298 299 300 301 302 303 304 305 306 307 307 307 307 307 307
256 258 261 263 268 271 273 275 277 279 281 282 283 283 284 285 286 286 286 287 287 288 289 291 292 294 295 296 298 299 300 301 302 303 305 306 306 307 308 308 308 308 308 308
259 260 262 268 269 272 274 275 277 279 281 282 283 284 285 285 285 285 285 285 286 287 289 291 292 294 296 297 299 300 301 303 304 305 306 307 308 308 309 309 309 309 309 309
260 263 266 268 272 274 275 276 278 279 280 281 283 284 285 285 284 284 284 285 286 288 290 291 293 295 297 298 300 301 303 304 305 306 307 308 309 309 310 310 310 310 310 309
263 267 271 273 274 276 278 279 279 279 281 283 284 284 285 285 284 284 284 285 287 289 291 293 294 296 298 299 301 302 304 305 306 307 308 309 310 310 311 311 311 311 310 310
265 269 273 277 280 280 282 283 283 283 283 283 284 284 284 284 284 284 285 287 288 290 292 294 296 298 299 301 302 304 305 306 307 308 309 310 310 311 311 312 311 311 310 310
266 270 275 278 281 282 283 284 286 286 285 284 283 283 283 283 283 285 286 288 290 292 294 296 298 299 301 302 303 304 306 307 308 309 310 311 311 312 312 312 311 311 310 309
267 270 274 277 279 281 283 284 286 286 285 284 283 282 282 283 284 286 288 290 292 294 296 298 299 301 302 303 304 305 307 308 309 310 311 312 312 313 313 312 311 310 309 308
270 272 275 277 278 280 282 284 286 285 284 283 282 282 283 285 286 288 290 292 294 295 297 299 300 301 303 304 305 306 308 309 310 311 312 312 313 313 312 311 310 310 309 308
271 273 274 275 277 279 282 283 284 283 283 282 282 283 285 287 288 290 292 294 295 297 298 300 301 302 304 305 306 307 308 310 311 312 312 313 313 313 312 311 310 309 308 307
270 271 273 275 277 279 281 281 281 281 281 282 283 285 287 288 290 292 294 295 297 298 300 301 302 303 305 306 307 308 309 311 311 312 312 313 312 311 311 310 309 309 307 307
270 271 273 275 277 278 279 279 279 279 280 282 284 286 288 290 292 293 295 296 298 299 301 302 303 305 306 307 308 310 311 311 312 312 313 312 311 311 310 309 308 307 306 306
270 272 273 275 276 277 277 277 278 279 281 284 286 287 289 291 293 294 296 297 299 300 302 303 305 306 307 308 309 310 311 312 312 312 312 311 310 310 309 308 307 305 305 305
269 270 272 274 275 275 275 277 278 281 283 285 287 289 291 292 294 295 297 299 300 302 304 305 306 307 308 309 310 310 311 311 311 311 311 310 309 308 308 308 307 306 305 306
268 269 271 272 273 274 276 278 280 282 284 286 288 290 292 294 295 297 299 300 302 304 304 305 306 307 308 309 310 310 311 311 310 310 309 309 308 308 308 308 307 307 307 307
267 268 270 272 274 276 278 280 282 284 286 288 290 292 294 296 297 299 301 302 304 305 305 306 307 308 309 309 310 310 310 310 309 308 308 307 307 307 307 306 306 307 308 309
268 270 272 274 276 278 280 282 284 286 288 290 292 294 296 298 299 301 302 303 304 305 306 306 307 308 309 309 309 310 309 309 308 307 306 305 305 306 305 305 306 307 309 310
270 272 275 277 279 281 284 285 287 289 291 293 295 297 299 300 301 302 303 304 305 305 306 306 307 308 308 309 308 308 308 307 306 305 303 303 303 304 304 305 306 308 309 309
273 275 278 280 283 285 287 289 291 293 294 296 298 299 300 301 302 303 304 305 305 305 306 307 307 308 308 307 307 307 306 305 304 302 301 301 302 302 303 304 305 307 308 309
277 280 282 284 286 288 290 292 294 295 297 298 299 300 301 302 303 304 304 305 305 306 306 307 307 307 306 306 305 305 304 303 301 300 299 300 300 301 302 303 305 307 308 308
281 283 286 288 290 292 293 295 296 298 299 300 301 301 302 303 303 304 304 305 305 306 306 306 306 306 305 304 303 303 301 300 298 297 297 298 299 300 301 303 304 306 307 308
285 287 289 291 293 294 296 297 298 299 300 300 301 302 302 303 303 304 304 305 305 305 306 306 305 304 303 302 301 300 298 297 296 295 296 297 298 300 301 302 304 306 307 307
289 290 292 293 295 296 296 297 298 299 300 301 301 302 302 303 303 304 305 305 305 305 305 305 304 302 301 299 298 297 295 294 294 294 295 297 298 299 300 302 304 306 307 307
291 292 294 295 296 296 297 298 298 299 300 301 301 302 302 303 304 304 304 305 305 305 304 303 302 300 299 297 296 295 294 293 293 293 294 295 297 298 299 300 302 305 306 307
293 294 295 296 296 297 297 298 298 299 300 301 301 302 302 302 303 303 304 304 304 304 303 302 300 298 297 295 294 293 292 291 291 292 293 295 296 297 298 299 301 303 306 306
294 295 295 296 296 297 298 298 299 300 300 301 301 302 302 302 302 303 303 303 303 303 302 300 299 297 295 294 292 291 290 289 290 290 291 293 295 296 297 298 300 302 305 305
Height
5740 5741 5743 5744 5745 5745 5745 5745 5744 5744 5744 5743 5739 5737 5735 5733 5731 5728 5726 5723 5720 5717 5714 5711 5708 5704 5700 5695 5691 5686 5681 5676 5670 5664 5657 5650 5642 5634 5626 5616 5607 5597 5587 5576
5732 5733 5734 5735 5737 5737 5737 5736 5735 5734 5734 5733 5730 5728 5725 5723 5721 5718 5715 5713 5710 5707 5704 5700 5697 5693 5688 5683 5679 5673 5668 5662 5655 5648 5641 5633 5625 5616 5607 5597 5587 5576 5565 5554
5724 5725 5724 5726 5731 5729 5728 5728 5726 5724 5725 5722 5720 5718 5716 5713 5710 5707 5705 5702 5699 5696 5692 5689 5685 5681 5676 5671 5666 5660 5654 5647 5640 5633 5625 5616 5607 5598 5588 5577 5567 5555 5543 5531
5714 5716 5715 5721 5721 5720 5718 5718 5716 5715 5713 5711 5709 5707 5705 5702 5700 5697 5694 5691 5688 5684 5681 5677 5673 5668 5663 5658 5652 5646 5640 5632 5624 5616 5608 5598 5589 5579 5568 5557 5546 5534 5522 5510
5705 5704 5705 5710 5711 5710 5708 5708 5707 5704 5702 5700 5698 5696 5694 5691 5688 5686 5683 5680 5676 5673 5669 5665 5661 5656 5651 5645 5638 5632 5624 5616 5608 5599 5590 5580 5570 5560 5548 5537 5526 5513 5501 5489
5695 5695 5695 5700 5701 5699 5698 5697 5697 5694 5691 5689 5687 5685 5683 5680 5677 5674 5671 5668 5665 5661 5657 5653 5648 5643 5637 5631 5624 5616 5609 5600 5591 5581 5572 5562 5551 5540 5528 5516 5505 5493 5482 5470
5686 5684 5685 5688 5688 5688 5688 5687 5685 5682 5680 5678 5676 5674 5672 5668 5665 5662 5660 5656 5653 5649 5644 5640 5634 5629 5623 5616 5608 5601 5592 5583 5574 5564 5553 5543 5532 5520 5508 5497 5485 5474 5464 5453
5676 5675 5677 5676 5676 5676 5675 5674 5673 5671 5669 5667 5665 5662 5659 5657 5654 5651 5648 5644 5640 5636 5631 5626 5620 5614 5608 5600 5593 5585 5576 5566 5556 5546 5535 5523 5512 5501 5488 5476 5465 5455 5445 5437
5667 5668 5667 5665 5664 5664 5663 5663 5661 5659 5658 5655 5653 5650 5648 5645 5642 5639 5636 5632 5628 5623 5618 5612 5605 5598 5592 5584 5576 5567 5558 5549 5538 5528 5516 5504 5493 5481 5470 5458 5447 5438 5429 5421
5656 5656 5655 5654 5653 5652 5652 5651 5649 5648 5646 5643 5641 5639 5636 5633 5630 5627 5623 5619 5614 5609 5604 5597 5590 5583 5575 5567 5559 5550 5541 5531 5520 5510 5499 5487 5475 5463 5451 5440 5430 5421 5413 5405
5644 5644 5643 5642 5642 5641 5640 5639 5637 5635 5633 5631 5629 5627 5624 5621 5618 5614 5610 5605 5600 5595 5589 5582 5575 5567 5559 5550 5541 5533 5523 5513 5502 5492 5480 5469 5458 5446 5435 5425 5413 5405 5398 5391
5633 5633 5632 5632 5631 5630 5628 5627 5625 5624 5622 5619 5617 5615 5612 5609 5605 5601 5596 5591 5586 5580 5573 5566 5559 5550 5541 5532 5523 5514 5505 5495 5484 5473 5462 5451 5441 5432 5421 5411 5402 5392 5384 5377
5621 5621 5620 5620 5619 5618 5616 5615 5613 5612 5610 5607 5605 5602 5599 5596 5592 5587 5582 5576 5571 5564 5557 5550 5542 5533 5524 5515 5505 5496 5486 5475 5465 5454 5443 5433 5423 5414 5408 5401 5390 5381 5373 5366
5608 5608 5608 5608 5607 5606 5604 5603 5601 5600 5598 5595 5593 5590 5586 5582 5578 5573 5567 5561 5555 5548 5541 5532 5524 5516 5506 5497 5487 5477 5467 5456 5446 5436 5426 5416 5407 5399 5391 5385 5379 5372 5364 5357
5597 5597 5597 5596 5595 5594 5593 5591 5590 5588 5586 5583 5580 5577 5573 5569 5564 5558 5552 5545 5539 5532 5524 5515 5507 5498 5488 5478 5469 5459 5449 5438 5428 5418 5409 5400 5392 5385 5378 5371 5365 5360 5354 5348
5585 5585 5585 5584 5583 5582 5581 5580 5578 5576 5573 5570 5567 5563 5559 5554 5549 5543 5536 5529 5522 5515 5506 5497 5489 5480 5470 5460 5450 5441 5431 5421 5410 5401 5393 5386 5378 5372 5366 5360 5354 5349 5343 5338
5575 5574 5574 5573 5573 5572 5570 5568 5566 5564 5561 5557 5554 5549 5544 5539 5533 5527 5520 5513 5505 5497 5488 5479 5470 5461 5451 5441 5431 5422 5413 5404 5395 5386 5379 5372 5366 5360 5355 5349 5344 5339 5334 5328
5564 5564 5564 5563 5562 5561 5559 5557 5554 5551 5548 5544 5539 5535 5529 5523 5517 5511 5504 5497 5488 5480 5470 5460 5451 5442 5433 5422 5413 5404 5396 5388 5380 5373 5366 5360 5355 5350 5344 5339 5335 5330 5325 5320
5555 5554 5553 5552 5551 5549 5547 5544 5541 5538 5534 5529 5525 5520 5514 5507 5500 5494 5486 5478 5469 5461 5454 5443 5433 5423 5414 5405 5395 5387 5379 5372 5366 5360 5354 5349 5344 5340 5335 5330 5326 5321 5316 5311
5545 5544 5543 5541 5539 5537 5534 5531 5528 5524 5519 5514 5509 5503 5497 5490 5482 5475 5468 5460 5450 5440 5433 5424 5414 5405 5396 5388 5379 5372 5365 5359 5353 5348 5343 5339 5335 5330 5326 5321 5317 5312 5307 5303
5534 5533 5531 5529 5527 5524 5521 5517 5513 5509 5504 5498 5492 5486 5479 5472 5464 5456 5448 5441 5433 5421 5413 5404 5395 5387 5379 5371 5364 5358 5352 5346 5341 5337 5333 5329 5325 5321 5317 5313 5308 5304 5299 5295
5523 5521 5519 5517 5514 5510 5506 5502 5498 5493 5487 5481 5474 5466 5460 5453 5445 5437 5429 5419 5412 5403 5394 5386 5377 5369 5362 5356 5350 5344 5339 5334 5330 5327 5323 5320 5316 5312 5309 5304 5300 5296 5291 5287
5511 5509 5506 5503 5500 5496 5491 5486 5481 5475 5469 5462 5455 5447 5439 5432 5424 5416 5411 5402 5391 5383 5375 5368 5360 5353 5346 5341 5336 5332 5327 5324 5320 5317 5314 5310 5307 5303 5300 5296 5292 5288 5283 5279
5498 5495 5492 5488 5484 5480 5475 5470 5463 5457 5450 5444 5436 5427 5418 5412 5405 5396 5387 5381 5373 5364 5357 5350 5343 5337 5332 5327 5323 5320 5316 5313 5310 5307 5304 5301 5298 5294 5291 5287 5283 5280 5276 5272
5483 5480 5476 5472 5467 5462 5458 5452 5446 5439 5432 5425 5418 5408 5399 5390 5384 5377 5369 5362 5354 5347 5340 5334 5328 5323 5318 5315 5311 5308 5305 5303 5300 5297 5295 5292 5289 5286 5282 5279 5276 5272 5269 5265
5468 5464 5459 5454 5449 5444 5438 5433 5427 5420 5412 5406 5399 5390 5381 5372 5364 5357 5351 5344 5337 5330 5324 5319 5314 5310 5306 5303 5300 5297 5295 5292 5290 5288 5285 5282 5280 5277 5274 5271 5268 5265 5262 5258
5451 5447 5442 5437 5430 5424 5418 5412 5406 5399 5392 5385 5379 5372 5363 5355 5347 5340 5333 5327 5321 5316 5310 5306 5302 5298 5295 5292 5289 5287 5284 5282 5280 5278 5276 5274 5271 5269 5266 5263 5261 5258 5255 5252